,,Stat5,,Stat1,,Stat2,,Stat3,,Stat4,,Wind1,,Wind1,
time,status,PA1M_AVG,status,PR1M_SUM,status,RH1M_AVG,status,SR1M_AVG,status,TA1M_AVG,status,W1dAve1m,status,W1sAve1m,
2002-05-01, 00:00:00,VALID,914.981,VALID,0,VALID,99.3708,VALID,0,VALID,19.4594,VALID,18,VALID,0.848558,
2002-05-01, 00:01:00,VALID,914.971,VALID,0,VALID,99.3835,VALID,0,VALID,19.4756,VALID,17,VALID,0.721137,
2002-05-01, 00:02:00,VALID,914.971,VALID,0,VALID,99.3835,VALID,-0.0339617,VALID,19.4766,VALID,10,VALID,1.04818,
2002-05-01, 00:03:00,VALID,914.956,VALID,0,VALID,99.3899,VALID,0,VALID,19.4562,VALID,6,VALID,0.935791,
2002-05-01, 00:04:00,VALID,914.965,VALID,0,VALID,99.3912,VALID,-0.0339617,VALID,19.4564,VALID,359,VALID,0.802849,
2002-05-01, 00:05:00,VALID,914.954,VALID,0,VALID,99.4001,VALID,0,VALID,19.4597,VALID,358,VALID,0.654811,
2002-05-01, 00:06:00,VALID,914.945,VALID,0,VALID,99.4013,VALID,-0.0339617,VALID,19.4758,VALID,6,VALID,1.03401,
2002-05-01, 00:07:00,VALID,914.933,VALID,0,VALID,99.4064,VALID,-0.0169808,VALID,19.5017,VALID,12,VALID,0.818623,
2002-05-01, 00:08:00,VALID,914.919,VALID,0,VALID,99.414,VALID,0,VALID,19.5114,VALID,18,VALID,1.0683,
2002-05-01, 00:09:00,VALID,914.892,VALID,0,VALID,99.4051,VALID,0,VALID,19.495,VALID,15,VALID,0.83355,
2002-05-01, 00:10:00,VALID,914.877,VALID,0,VALID,99.409,VALID,0,VALID,19.4982,VALID,13,VALID,1.08446,
2002-05-01, 00:11:00,VALID,914.85,VALID,0,VALID,99.409,VALID,0,VALID,19.5049,VALID,17,VALID,1.04598,
2002-05-01, 00:12:00,VALID,914.845,VALID,0,VALID,99.4102,VALID,0,VALID,19.5248,VALID,11,VALID,1.12457,
2002-05-01, 00:13:00,VALID,914.827,VALID,0,VALID,99.4128,VALID,0,VALID,19.5146,VALID,15,VALID,1.0808,
2002-05-01, 00:14:00,VALID,914.82,VALID,0,VALID,99.4191,VALID,0.0169808,VALID,19.5243,VALID,23,VALID,1.00955,
2002-05-01, 00:15:00,VALID,914.825,VALID,0,VALID,99.4077,VALID,0.0169808,VALID,19.5176,VALID,24,VALID,1.00921,
2002-05-01, 00:16:00,VALID,914.824,VALID,0,VALID,99.4153,VALID,0.0339617,VALID,19.5146,VALID,41,VALID,0.753676,
2002-05-01, 00:17:00,VALID,914.822,VALID,0,VALID,99.4179,VALID,0.0169808,VALID,19.5141,VALID,24,VALID,0.809211,
2002-05-01, 00:18:00,VALID,914.803,VALID,0,VALID,99.4102,VALID,0.0169808,VALID,19.5176,VALID,45,VALID,0.963976,
2002-05-01, 00:19:00,VALID,914.783,VALID,0,VALID,99.4166,VALID,0.0169808,VALID,19.5039,VALID,38,VALID,0.618666,
2002-05-01, 00:20:00,VALID,914.782,VALID,0,VALID,99.4128,VALID,0,VALID,19.5268,VALID,26,VALID,0.586782,
2002-05-01, 00:21:00,VALID,914.759,VALID,0,VALID,99.4128,VALID,0,VALID,19.5273,VALID,17,VALID,0.610491,
2002-05-01, 00:22:00,VALID,914.743,VALID,0,VALID,99.4077,VALID,0,VALID,19.534,VALID,16,VALID,0.408203,
2002-05-01, 00:23:00,VALID,914.738,VALID,0,VALID,99.4166,VALID,0.0169808,VALID,19.5302,VALID,23,VALID,0.479688,
2002-05-01, 00:24:00,VALID,914.72,VALID,0,VALID,99.4077,VALID,0,VALID,19.5566,VALID,26,VALID,0.293186,
2002-05-01, 00:25:00,VALID,914.712,VALID,0,VALID,99.4268,VALID,0.0169808,VALID,19.5496,VALID,25,VALID,0.221154,
2002-05-01, 00:26:00,VALID,914.722,VALID,0,VALID,99.4293,VALID,0.0169808,VALID,19.5529,VALID,25,VALID,0.0914522,
2002-05-01, 00:27:00,VALID,914.715,VALID,0,VALID,99.4115,VALID,0.0169808,VALID,19.5432,VALID,25,VALID,0,
2002-05-01, 00:28:00,VALID,914.725,VALID,0,VALID,99.4217,VALID,0.0339617,VALID,19.5402,VALID,25,VALID,0.0527344,
2002-05-01, 00:29:00,VALID,914.723,VALID,0,VALID,99.4102,VALID,0.0169808,VALID,19.527,VALID,25,VALID,0.0736909,
2002-05-01, 00:30:00,VALID,914.736,VALID,0,VALID,99.409,VALID,0.0169808,VALID,19.5171,VALID,25,VALID,0.0126689,
2002-05-01, 00:31:00,VALID,914.735,VALID,0,VALID,99.4001,VALID,0.0169808,VALID,19.5111,VALID,25,VALID,0,
2002-05-01, 00:32:00,VALID,914.736,VALID,0,VALID,99.4166,VALID,0.0169808,VALID,19.5046,VALID,25,VALID,0,
2002-05-01, 00:33:00,VALID,914.737,VALID,0,VALID,99.4179,VALID,0.0169808,VALID,19.5014,VALID,25,VALID,0.15,
2002-05-01, 00:34:00,VALID,914.754,VALID,0,VALID,99.4128,VALID,0.0169808,VALID,19.5176,VALID,36,VALID,0.261719,
2002-05-01, 00:35:00,VALID,914.749,VALID,0,VALID,99.4102,VALID,0,VALID,19.4982,VALID,152,VALID,0.461138,
2002-05-01, 00:36:00,VALID,914.742,VALID,0,VALID,99.4064,VALID,0,VALID,19.4882,VALID,147,VALID,0.296875,
2002-05-01, 00:37:00,VALID,914.742,VALID,0,VALID,99.4077,VALID,0.0169808,VALID,19.495,VALID,142,VALID,0.0857319,
2002-05-01, 00:38:00,VALID,914.737,VALID,0,VALID,99.4128,VALID,-0.0509425,VALID,19.5024,VALID,142,VALID,0,
2002-05-01, 00:39:00,VALID,914.725,VALID,0,VALID,99.4153,VALID,-0.0849042,VALID,19.4964,VALID,142,VALID,0,
2002-05-01, 00:40:00,VALID,914.71,VALID,0,VALID,99.4166,VALID,-0.101885,VALID,19.4964,VALID,140,VALID,0,
2002-05-01, 00:41:00,VALID,914.698,VALID,0,VALID,99.4102,VALID,-0.101885,VALID,19.4934,VALID,131,VALID,0,
2002-05-01, 00:42:00,VALID,914.678,VALID,0,VALID,99.4077,VALID,-0.101885,VALID,19.4867,VALID,131,VALID,0,
2002-05-01, 00:43:00,VALID,914.665,VALID,0,VALID,99.409,VALID,-0.101885,VALID,19.4641,VALID,131,VALID,0,
2002-05-01, 00:44:00,VALID,914.649,VALID,0,VALID,99.3988,VALID,-0.0849042,VALID,19.4445,VALID,125,VALID,0.327703,
2002-05-01, 00:45:00,VALID,914.637,VALID,0,VALID,99.4102,VALID,-0.101885,VALID,19.438,VALID,114,VALID,0.35016,
2002-05-01, 00:46:00,VALID,914.623,VALID,0,VALID,99.4051,VALID,-0.101885,VALID,19.4378,VALID,95,VALID,0.46921,
2002-05-01, 00:47:00,VALID,914.61,VALID,0,VALID,99.3962,VALID,-0.101885,VALID,19.4219,VALID,83,VALID,0.60074,
2002-05-01, 00:48:00,VALID,914.601,VALID,0,VALID,99.409,VALID,-0.101885,VALID,19.4094,VALID,72,VALID,0.640842,
2002-05-01, 00:49:00,VALID,914.583,VALID,0,VALID,99.4039,VALID,-0.0849042,VALID,19.406,VALID,60,VALID,0.675676,
2002-05-01, 00:50:00,VALID,914.565,VALID,0,VALID,99.4128,VALID,-0.135847,VALID,19.4417,VALID,51,VALID,0.684544,
2002-05-01, 00:51:00,VALID,914.55,VALID,0,VALID,99.4204,VALID,-0.101885,VALID,19.4706,VALID,46,VALID,0.525223,
2002-05-01, 00:52:00,VALID,914.538,VALID,0,VALID,99.4306,VALID,-0.118866,VALID,19.487,VALID,34,VALID,0.520182,
2002-05-01, 00:53:00,VALID,914.519,VALID,0,VALID,99.4293,VALID,-0.0339617,VALID,19.5056,VALID,36,VALID,0.608036,
2002-05-01, 00:54:00,VALID,914.499,VALID,0,VALID,99.4306,VALID,0,VALID,19.4691,VALID,43,VALID,0.855903,
2002-05-01, 00:55:00,VALID,914.483,VALID,0,VALID,99.4318,VALID,0,VALID,19.4984,VALID,41,VALID,0.48137,
2002-05-01, 00:56:00,VALID,914.48,VALID,0,VALID,99.4166,VALID,0.0169808,VALID,19.4882,VALID,48,VALID,0.438649,
2002-05-01, 00:57:00,VALID,914.464,VALID,0,VALID,99.4191,VALID,0,VALID,19.4882,VALID,57,VALID,0.349301,
2002-05-01, 00:58:00,VALID,914.451,VALID,0,VALID,99.4191,VALID,0.0169808,VALID,19.5178,VALID,79,VALID,0.309245,
2002-05-01, 00:59:00,VALID,914.449,VALID,0,VALID,99.4166,VALID,0,VALID,19.5407,VALID,149,VALID,0.447002,
2002-05-01, 01:00:00,VALID,914.449,VALID,0,VALID,99.4115,VALID,-0.0169808,VALID,19.5307,VALID,141,VALID,0.545397,
2002-05-01, 01:01:00,VALID,914.444,VALID,0,VALID,99.3873,VALID,0,VALID,19.5176,VALID,142,VALID,0.729018,
2002-05-01, 01:02:00,VALID,914.421,VALID,0,VALID,99.3848,VALID,0.0169808,VALID,19.5213,VALID,147,VALID,0.766927,
2002-05-01, 01:03:00,VALID,914.415,VALID,0,VALID,99.3886,VALID,0,VALID,19.5111,VALID,150,VALID,0.576116,
2002-05-01, 01:04:00,VALID,914.408,VALID,0,VALID,99.3848,VALID,0.0169808,VALID,19.5208,VALID,152,VALID,0.0659722,
2002-05-01, 01:05:00,VALID,914.389,VALID,0,VALID,99.3797,VALID,0,VALID,19.5111,VALID,130,VALID,0.0967548,
2002-05-01, 01:06:00,VALID,914.368,VALID,0,VALID,99.3695,VALID,-0.0169808,VALID,19.5012,VALID,84,VALID,0.418428,
2002-05-01, 01:07:00,VALID,914.356,VALID,0,VALID,99.3708,VALID,0,VALID,19.4922,VALID,96,VALID,0.547081,
2002-05-01, 01:08:00,VALID,914.334,VALID,0,VALID,99.3619,VALID,-0.0169808,VALID,19.4793,VALID,103,VALID,0.38954,
2002-05-01, 01:09:00,VALID,914.34,VALID,0,VALID,99.3492,VALID,0,VALID,19.4564,VALID,99,VALID,0.292863,
2002-05-01, 01:10:00,VALID,914.309,VALID,0,VALID,99.3568,VALID,-0.0169808,VALID,19.4405,VALID,92,VALID,0.480574,
2002-05-01, 01:11:00,VALID,914.281,VALID,0,VALID,99.3505,VALID,0,VALID,19.4378,VALID,90,VALID,0.490625,
2002-05-01, 01:12:00,VALID,914.26,VALID,0,VALID,99.3505,VALID,-0.0169808,VALID,19.4115,VALID,87,VALID,0.031033,
2002-05-01, 01:13:00,VALID,914.241,VALID,0,VALID,99.3581,VALID,-0.0169808,VALID,19.4186,VALID,65,VALID,0.266518,
2002-05-01, 01:14:00,VALID,914.234,VALID,0,VALID,99.3734,VALID,-0.0339617,VALID,19.4378,VALID,4,VALID,0.421875,
2002-05-01, 01:15:00,VALID,914.212,VALID,0,VALID,99.3632,VALID,-0.0849042,VALID,19.4373,VALID,5,VALID,0.453726,
2002-05-01, 01:16:00,VALID,914.197,VALID,0,VALID,99.3835,VALID,-0.0339617,VALID,19.4539,VALID,5,VALID,0.516314,
2002-05-01, 01:17:00,VALID,914.195,VALID,0,VALID,99.3861,VALID,0,VALID,19.479,VALID,354,VALID,0.701275,
2002-05-01, 01:18:00,VALID,914.188,VALID,0,VALID,99.414,VALID,-0.0339617,VALID,19.6018,VALID,348,VALID,0.722873,
2002-05-01, 01:19:00,VALID,914.179,VALID,0,VALID,99.4179,VALID,-0.0339617,VALID,19.6764,VALID,10,VALID,0.613598,
2002-05-01, 01:20:00,VALID,914.176,VALID,0,VALID,99.4064,VALID,-0.0509425,VALID,19.6833,VALID,25,VALID,0.350296,
2002-05-01, 01:21:00,VALID,914.165,VALID,0,VALID,99.4001,VALID,-0.0509425,VALID,19.6542,VALID,12,VALID,0.763839,
2002-05-01, 01:22:00,VALID,914.158,VALID,0,VALID,99.3734,VALID,-0.0509425,VALID,19.6411,VALID,22,VALID,0.857856,
2002-05-01, 01:23:00,VALID,914.155,VALID,0,VALID,99.3428,VALID,0,VALID,19.6122,VALID,33,VALID,0.713839,
2002-05-01, 01:24:00,VALID,914.155,VALID,0,VALID,99.3212,VALID,-0.0679233,VALID,19.6122,VALID,52,VALID,0.641493,
2002-05-01, 01:25:00,VALID,914.145,VALID,0,VALID,99.3021,VALID,-0.0509425,VALID,19.6155,VALID,55,VALID,0.926282,
2002-05-01, 01:26:00,VALID,914.146,VALID,0,VALID,99.2691,VALID,-0.0339617,VALID,19.6182,VALID,61,VALID,1.02688,
2002-05-01, 01:27:00,VALID,914.136,VALID,0,VALID,99.2716,VALID,-0.0339617,VALID,19.6376,VALID,60,VALID,1.26254,
2002-05-01, 01:28:00,VALID,914.132,VALID,0,VALID,99.264,VALID,-0.0339617,VALID,19.6699,VALID,55,VALID,1.17122,
2002-05-01, 01:29:00,VALID,914.135,VALID,0,VALID,99.236,VALID,-0.0169808,VALID,19.6734,VALID,53,VALID,1.26246,
2002-05-01, 01:30:00,VALID,914.133,VALID,0,VALID,99.2182,VALID,0,VALID,19.6992,VALID,47,VALID,1.18391,
2002-05-01, 01:31:00,VALID,914.118,VALID,0,VALID,99.1801,VALID,-0.0169808,VALID,19.6699,VALID,27,VALID,0.968304,
2002-05-01, 01:32:00,VALID,914.098,VALID,0,VALID,99.1737,VALID,-0.0169808,VALID,19.6856,VALID,7,VALID,0.863932,
2002-05-01, 01:33:00,VALID,914.074,VALID,0,VALID,99.161,VALID,-0.0339617,VALID,19.7089,VALID,1,VALID,0.736161,
2002-05-01, 01:34:00,VALID,914.053,VALID,0,VALID,99.147,VALID,-0.0339617,VALID,19.7213,VALID,14,VALID,0.492622,
2002-05-01, 01:35:00,VALID,914.047,VALID,0,VALID,99.1318,VALID,-0.0339617,VALID,19.7477,VALID,17,VALID,0.283854,
2002-05-01, 01:36:00,VALID,914.034,VALID,0,VALID,99.1152,VALID,-0.0509425,VALID,19.7372,VALID,46,VALID,0.35432,
2002-05-01, 01:37:00,VALID,914.029,VALID,0,VALID,99.0822,VALID,-0.0339617,VALID,19.7375,VALID,46,VALID,0.0476974,
2002-05-01, 01:38:00,VALID,914.002,VALID,0,VALID,99.0338,VALID,0.0509425,VALID,19.7333,VALID,46,VALID,0.00325521,
2002-05-01, 01:39:00,VALID,913.989,VALID,0,VALID,99.0071,VALID,0.0849042,VALID,19.7298,VALID,46,VALID,0.141892,
2002-05-01, 01:40:00,VALID,913.968,VALID,0,VALID,98.9817,VALID,0.0679233,VALID,19.7233,VALID,46,VALID,0.0409628,
2002-05-01, 01:41:00,VALID,913.935,VALID,0,VALID,98.9537,VALID,0.0509425,VALID,19.7136,VALID,46,VALID,0,
2002-05-01, 01:42:00,VALID,913.914,VALID,0,VALID,98.9283,VALID,0.101885,VALID,19.701,VALID,354,VALID,0.2602,
2002-05-01, 01:43:00,VALID,913.888,VALID,0,VALID,98.8812,VALID,0.101885,VALID,19.6751,VALID,265,VALID,0.16808,
2002-05-01, 01:44:00,VALID,913.862,VALID,0,VALID,98.8774,VALID,0.101885,VALID,19.662,VALID,266,VALID,0.00130208,
2002-05-01, 01:45:00,VALID,913.82,VALID,0,VALID,98.9245,VALID,0.0849042,VALID,19.6749,VALID,305,VALID,0.11238,
2002-05-01, 01:46:00,VALID,913.81,VALID,0,VALID,98.8787,VALID,0.0679233,VALID,19.6716,VALID,10,VALID,0.427619,
2002-05-01, 01:47:00,VALID,913.797,VALID,0,VALID,98.8355,VALID,0.101885,VALID,19.649,VALID,10,VALID,0.0213816,
2002-05-01, 01:48:00,VALID,913.799,VALID,0,VALID,98.7897,VALID,0.0679233,VALID,19.6336,VALID,10,VALID,0.0983073,
2002-05-01, 01:49:00,VALID,913.786,VALID,0,VALID,98.8037,VALID,0.0509425,VALID,19.6008,VALID,10,VALID,0.00168919,
2002-05-01, 01:50:00,VALID,913.78,VALID,0,VALID,98.8266,VALID,0.101885,VALID,19.5973,VALID,14,VALID,0.132813,
2002-05-01, 01:51:00,VALID,913.765,VALID,0,VALID,98.8444,VALID,0.0509425,VALID,19.6045,VALID,17,VALID,0.150446,
2002-05-01, 01:52:00,VALID,913.759,VALID,0,VALID,98.8749,VALID,0.0679233,VALID,19.6073,VALID,30,VALID,0.249132,
2002-05-01, 01:53:00,VALID,913.78,VALID,0,VALID,98.8584,VALID,0.101885,VALID,19.6073,VALID,34,VALID,0.174777,
2002-05-01, 01:54:00,VALID,913.773,VALID,0,VALID,98.7935,VALID,0.0509425,VALID,19.5886,VALID,30,VALID,0.478733,
2002-05-01, 01:55:00,VALID,913.754,VALID,0,VALID,98.8075,VALID,0.0679233,VALID,19.5648,VALID,20,VALID,0.71274,
2002-05-01, 01:56:00,VALID,913.748,VALID,0,VALID,98.866,VALID,0.0339617,VALID,19.5752,VALID,19,VALID,0.19807,
2002-05-01, 01:57:00,VALID,913.737,VALID,0,VALID,98.8901,VALID,0.0679233,VALID,19.6013,VALID,5,VALID,0.472245,
2002-05-01, 01:58:00,VALID,913.719,VALID,0,VALID,98.8774,VALID,0.0509425,VALID,19.6177,VALID,4,VALID,0.463759,
2002-05-01, 01:59:00,VALID,913.703,VALID,0,VALID,98.8444,VALID,0.0509425,VALID,19.6045,VALID,4,VALID,0.282728,
2002-05-01, 02:00:00,VALID,913.687,VALID,0,VALID,98.8189,VALID,0.0339617,VALID,19.5747,VALID,4,VALID,0.427998,
2002-05-01, 02:01:00,VALID,913.664,VALID,0,VALID,98.852,VALID,0.0509425,VALID,19.5879,VALID,4,VALID,0.497768,
2002-05-01, 02:02:00,VALID,913.656,VALID,0,VALID,98.9054,VALID,0.0849042,VALID,19.6234,VALID,4,VALID,0.0525174,
2002-05-01, 02:03:00,VALID,913.648,VALID,0,VALID,98.9194,VALID,0.0339617,VALID,19.6629,VALID,4,VALID,0.0285714,
2002-05-01, 02:04:00,VALID,913.65,VALID,0,VALID,98.9423,VALID,0.0849042,VALID,19.6784,VALID,2,VALID,0.0657552,
2002-05-01, 02:05:00,VALID,913.662,VALID,0,VALID,98.9372,VALID,0.101885,VALID,19.7012,VALID,250,VALID,0.437099,
2002-05-01, 02:06:00,VALID,913.662,VALID,0,VALID,98.9944,VALID,0.0849042,VALID,19.7658,VALID,274,VALID,0.488511,
2002-05-01, 02:07:00,VALID,913.664,VALID,0,VALID,98.9639,VALID,0.101885,VALID,19.7947,VALID,351,VALID,0.292352,
2002-05-01, 02:08:00,VALID,913.663,VALID,0,VALID,98.8787,VALID,0,VALID,19.7832,VALID,319,VALID,0.26237,
2002-05-01, 02:09:00,VALID,913.67,VALID,0,VALID,98.8342,VALID,0,VALID,19.7929,VALID,310,VALID,0.0479307,
2002-05-01, 02:10:00,VALID,913.651,VALID,0,VALID,98.791,VALID,-0.0169808,VALID,19.7894,VALID,310,VALID,0.000211149,
2002-05-01, 02:11:00,VALID,913.643,VALID,0,VALID,98.7719,VALID,-0.0169808,VALID,19.8093,VALID,310,VALID,0.0810268,
2002-05-01, 02:12:00,VALID,913.623,VALID,0,VALID,98.735,VALID,0,VALID,19.8056,VALID,310,VALID,0,
2002-05-01, 02:13:00,VALID,913.617,VALID,0,VALID,98.6956,VALID,0,VALID,19.8066,VALID,310,VALID,0.0212054,
2002-05-01, 02:14:00,VALID,913.6,VALID,0,VALID,98.6625,VALID,0,VALID,19.7937,VALID,309,VALID,0.0967882,
2002-05-01, 02:15:00,VALID,913.595,VALID,0,VALID,98.6371,VALID,-0.0169808,VALID,19.7668,VALID,309,VALID,0,
2002-05-01, 02:16:00,VALID,913.571,VALID,0,VALID,98.6167,VALID,0,VALID,19.7576,VALID,309,VALID,0,
2002-05-01, 02:17:00,VALID,913.543,VALID,0,VALID,98.557,VALID,0,VALID,19.731,VALID,309,VALID,0,
2002-05-01, 02:18:00,VALID,913.53,VALID,0,VALID,98.5595,VALID,0,VALID,19.7186,VALID,309,VALID,0,
2002-05-01, 02:19:00,VALID,913.523,VALID,0,VALID,98.3828,VALID,-0.0169808,VALID,19.6537,VALID,19,VALID,0.184544,
2002-05-01, 02:20:00,VALID,913.517,VALID,0,VALID,98.4286,VALID,0,VALID,19.6018,VALID,61,VALID,0.396537,
2002-05-01, 02:21:00,VALID,913.496,VALID,0,VALID,98.5595,VALID,0.0169808,VALID,19.5921,VALID,85,VALID,0.613393,
2002-05-01, 02:22:00,VALID,913.481,VALID,0,VALID,98.5773,VALID,0.0169808,VALID,19.5921,VALID,86,VALID,0.907769,
2002-05-01, 02:23:00,VALID,913.467,VALID,0,VALID,98.5608,VALID,0.0169808,VALID,19.5663,VALID,84,VALID,0.884598,
2002-05-01, 02:24:00,VALID,913.451,VALID,0,VALID,98.6587,VALID,0.0339617,VALID,19.5531,VALID,89,VALID,0.971137,
2002-05-01, 02:25:00,VALID,913.434,VALID,0,VALID,98.6447,VALID,0,VALID,19.5538,VALID,88,VALID,0.809696,
2002-05-01, 02:26:00,VALID,913.422,VALID,0,VALID,98.6651,VALID,-0.0169808,VALID,19.5275,VALID,90,VALID,0.909697,
2002-05-01, 02:27:00,VALID,913.416,VALID,0,VALID,98.7935,VALID,0.0169808,VALID,19.5345,VALID,102,VALID,1.20724,
2002-05-01, 02:28:00,VALID,913.423,VALID,0,VALID,98.7795,VALID,-0.0169808,VALID,19.5305,VALID,101,VALID,1.13824,
2002-05-01, 02:29:00,VALID,913.417,VALID,0,VALID,98.7643,VALID,-0.0339617,VALID,19.5178,VALID,95,VALID,0.761402,
2002-05-01, 02:30:00,VALID,913.429,VALID,0,VALID,98.791,VALID,0,VALID,19.5086,VALID,96,VALID,0.736698,
2002-05-01, 02:31:00,VALID,913.426,VALID,0,VALID,98.8024,VALID,0,VALID,19.4989,VALID,88,VALID,0.479018,
2002-05-01, 02:32:00,VALID,913.437,VALID,0,VALID,98.8571,VALID,0.0339617,VALID,19.4895,VALID,95,VALID,0.347439,
2002-05-01, 02:33:00,VALID,913.427,VALID,0,VALID,98.894,VALID,-0.0509425,VALID,19.4925,VALID,113,VALID,0.464509,
2002-05-01, 02:34:00,VALID,913.417,VALID,0,VALID,98.9346,VALID,0,VALID,19.4865,VALID,123,VALID,0.0852865,
2002-05-01, 02:35:00,VALID,913.42,VALID,0,VALID,98.9537,VALID,0,VALID,19.4892,VALID,123,VALID,0.00200321,
2002-05-01, 02:36:00,VALID,913.42,VALID,0,VALID,98.9741,VALID,-0.0339617,VALID,19.4858,VALID,123,VALID,0,
2002-05-01, 02:37:00,VALID,913.42,VALID,0,VALID,98.9842,VALID,-0.0169808,VALID,19.4828,VALID,123,VALID,0,
2002-05-01, 02:38:00,VALID,913.415,VALID,0,VALID,99.0008,VALID,-0.0169808,VALID,19.4897,VALID,107,VALID,0.124783,
2002-05-01, 02:39:00,VALID,913.403,VALID,0,VALID,99.0237,VALID,-0.0169808,VALID,19.486,VALID,56,VALID,0.345861,
2002-05-01, 02:40:00,VALID,913.401,VALID,0,VALID,99.0224,VALID,-0.0169808,VALID,19.4669,VALID,54,VALID,0.0502534,
2002-05-01, 02:41:00,VALID,913.408,VALID,0,VALID,99.0084,VALID,-0.0509425,VALID,19.4375,VALID,54,VALID,0,
2002-05-01, 02:42:00,VALID,913.385,VALID,0,VALID,99.0262,VALID,-0.0169808,VALID,19.4378,VALID,54,VALID,0,
2002-05-01, 02:43:00,VALID,913.372,VALID,0,VALID,99.0389,VALID,0,VALID,19.4346,VALID,54,VALID,0,
2002-05-01, 02:44:00,VALID,913.371,VALID,0,VALID,99.0516,VALID,-0.0169808,VALID,19.4246,VALID,54,VALID,0,
2002-05-01, 02:45:00,VALID,913.354,VALID,0,VALID,99.0631,VALID,-0.0169808,VALID,19.4313,VALID,54,VALID,0,
2002-05-01, 02:46:00,VALID,913.344,VALID,0,VALID,99.0631,VALID,-0.0169808,VALID,19.4087,VALID,54,VALID,0,
2002-05-01, 02:47:00,VALID,913.339,VALID,0,VALID,99.0707,VALID,-0.0509425,VALID,19.3891,VALID,54,VALID,0.00986842,
2002-05-01, 02:48:00,VALID,913.336,VALID,0,VALID,99.0949,VALID,-0.0169808,VALID,19.3953,VALID,54,VALID,0.158637,
2002-05-01, 02:49:00,VALID,913.339,VALID,0,VALID,99.1012,VALID,0,VALID,19.4025,VALID,53,VALID,0.255068,
2002-05-01, 02:50:00,VALID,913.323,VALID,0,VALID,99.1076,VALID,-0.0169808,VALID,19.3926,VALID,53,VALID,0.0869932,
2002-05-01, 02:51:00,VALID,913.318,VALID,0,VALID,99.1012,VALID,-0.0169808,VALID,19.3632,VALID,53,VALID,0,
2002-05-01, 02:52:00,VALID,913.331,VALID,0,VALID,99.1038,VALID,0,VALID,19.3568,VALID,53,VALID,0.000434028,
2002-05-01, 02:53:00,VALID,913.316,VALID,0,VALID,99.0987,VALID,-0.0339617,VALID,19.3411,VALID,53,VALID,0.373214,
2002-05-01, 02:54:00,VALID,913.291,VALID,0,VALID,99.105,VALID,0,VALID,19.3175,VALID,53,VALID,0.386936,
2002-05-01, 02:55:00,VALID,913.284,VALID,0,VALID,99.1292,VALID,-0.0339617,VALID,19.3247,VALID,53,VALID,0.422276,
2002-05-01, 02:56:00,VALID,913.257,VALID,0,VALID,99.1572,VALID,-0.0169808,VALID,19.3443,VALID,53,VALID,0.450597,
2002-05-01, 02:57:00,VALID,913.251,VALID,0,VALID,99.1979,VALID,0,VALID,19.3473,VALID,53,VALID,0.403372,
2002-05-01, 02:58:00,VALID,913.242,VALID,0,VALID,99.2284,VALID,0,VALID,19.3863,VALID,53,VALID,0.440538,
2002-05-01, 02:59:00,VALID,913.242,VALID,0,VALID,99.2462,VALID,0,VALID,19.3988,VALID,67,VALID,0.496622,
2002-05-01, 03:00:00,VALID,913.26,VALID,0,VALID,99.2487,VALID,0,VALID,19.4085,VALID,102,VALID,0.482686,
2002-05-01, 03:01:00,VALID,913.265,VALID,0,VALID,99.2398,VALID,0,VALID,19.4122,VALID,117,VALID,0.391518,
2002-05-01, 03:02:00,VALID,913.287,VALID,0,VALID,99.2462,VALID,0,VALID,19.4082,VALID,119,VALID,0.309462,
2002-05-01, 03:03:00,VALID,913.297,VALID,0,VALID,99.2411,VALID,0,VALID,19.3754,VALID,119,VALID,0.123661,
2002-05-01, 03:04:00,VALID,913.303,VALID,0,VALID,99.2157,VALID,0,VALID,19.3531,VALID,119,VALID,0.0698785,
2002-05-01, 03:05:00,VALID,913.301,VALID,0,VALID,99.2017,VALID,0,VALID,19.3337,VALID,88,VALID,0.28145,
2002-05-01, 03:06:00,VALID,913.29,VALID,0,VALID,99.2093,VALID,-0.0169808,VALID,19.3178,VALID,67,VALID,0.301011,
2002-05-01, 03:07:00,VALID,913.266,VALID,0,VALID,99.1902,VALID,0,VALID,19.2959,VALID,63,VALID,0.464227,
2002-05-01, 03:08:00,VALID,913.27,VALID,0,VALID,99.1864,VALID,0,VALID,19.2629,VALID,49,VALID,0.434679,
2002-05-01, 03:09:00,VALID,913.251,VALID,0,VALID,99.1941,VALID,-0.0169808,VALID,19.2594,VALID,49,VALID,0.47234,
2002-05-01, 03:10:00,VALID,913.243,VALID,0,VALID,99.2208,VALID,-0.0339617,VALID,19.2855,VALID,50,VALID,0.656672,
2002-05-01, 03:11:00,VALID,913.209,VALID,0,VALID,99.2386,VALID,0,VALID,19.2952,VALID,51,VALID,0.774554,
2002-05-01, 03:12:00,VALID,913.202,VALID,0,VALID,99.2449,VALID,-0.0169808,VALID,19.3148,VALID,51,VALID,0.874349,
2002-05-01, 03:13:00,VALID,913.188,VALID,0,VALID,99.2602,VALID,0,VALID,19.3245,VALID,49,VALID,0.979911,
2002-05-01, 03:14:00,VALID,913.165,VALID,0,VALID,99.2678,VALID,0,VALID,19.3307,VALID,52,VALID,0.972873,
2002-05-01, 03:15:00,VALID,913.139,VALID,0,VALID,99.2882,VALID,-0.0339617,VALID,19.3568,VALID,58,VALID,1.01202,
2002-05-01, 03:16:00,VALID,913.131,VALID,0,VALID,99.3072,VALID,0.0169808,VALID,19.3953,VALID,63,VALID,0.997013,
2002-05-01, 03:17:00,VALID,913.124,VALID,0,VALID,99.2983,VALID,0,VALID,19.4112,VALID,64,VALID,0.996711,
2002-05-01, 03:18:00,VALID,913.111,VALID,0,VALID,99.306,VALID,0,VALID,19.4241,VALID,61,VALID,0.925998,
2002-05-01, 03:19:00,VALID,913.097,VALID,0,VALID,99.3339,VALID,0.0169808,VALID,19.4723,VALID,63,VALID,0.84016,
2002-05-01, 03:20:00,VALID,913.091,VALID,0,VALID,99.3276,VALID,-0.0169808,VALID,19.4696,VALID,61,VALID,0.811022,
2002-05-01, 03:21:00,VALID,913.075,VALID,0,VALID,99.3199,VALID,-0.0169808,VALID,19.4726,VALID,52,VALID,0.739509,
2002-05-01, 03:22:00,VALID,913.061,VALID,0,VALID,99.3263,VALID,-0.0169808,VALID,19.5049,VALID,53,VALID,0.543186,
2002-05-01, 03:23:00,VALID,913.037,VALID,0,VALID,99.3136,VALID,-0.0169808,VALID,19.5118,VALID,47,VALID,0.271652,
2002-05-01, 03:24:00,VALID,913.032,VALID,0,VALID,99.292,VALID,-0.0169808,VALID,19.4987,VALID,47,VALID,0.0555556,
2002-05-01, 03:25:00,VALID,913.01,VALID,0,VALID,99.2678,VALID,0,VALID,19.479,VALID,47,VALID,0.0010016,
2002-05-01, 03:26:00,VALID,913.001,VALID,0,VALID,99.2386,VALID,0,VALID,19.4562,VALID,47,VALID,0.132813,
2002-05-01, 03:27:00,VALID,912.991,VALID,0,VALID,99.2182,VALID,0.0169808,VALID,19.4405,VALID,87,VALID,0.33162,
2002-05-01, 03:28:00,VALID,912.981,VALID,0,VALID,99.2068,VALID,-0.0169808,VALID,19.4209,VALID,125,VALID,0.299913,
2002-05-01, 03:29:00,VALID,912.992,VALID,0,VALID,99.1979,VALID,0,VALID,19.4144,VALID,165,VALID,0.306588,
2002-05-01, 03:30:00,VALID,912.983,VALID,0,VALID,99.1979,VALID,-0.0169808,VALID,19.4177,VALID,166,VALID,0.0821368,
2002-05-01, 03:31:00,VALID,912.974,VALID,0,VALID,99.1966,VALID,-0.0169808,VALID,19.4147,VALID,166,VALID,0.101116,
2002-05-01, 03:32:00,VALID,912.954,VALID,0,VALID,99.1928,VALID,-0.0339617,VALID,19.4085,VALID,130,VALID,0.147352,
2002-05-01, 03:33:00,VALID,912.97,VALID,0,VALID,99.1496,VALID,0,VALID,19.3369,VALID,57,VALID,0.601563,
2002-05-01, 03:34:00,VALID,912.953,VALID,0,VALID,99.1279,VALID,0,VALID,19.3078,VALID,52,VALID,0.614149,
2002-05-01, 03:35:00,VALID,912.962,VALID,0,VALID,99.147,VALID,-0.0169808,VALID,19.3081,VALID,50,VALID,0.65004,